Terminal Aerodrome Forecast
Issued by NWS

Home | Current Version | Previous Version | Text Only | Print | Product List | Glossary On
Versions: 1 2 3 4 5 6 7 8 9 10 11 12 13 14 15 16 17
000
FTUS43 KIND 010800 AAA
TAFBMG
TAF AMD
KBMG 010834Z 0109/0206 13005KT P6SM VCSH SCT025 OVC050
     FM011500 13010KT 4SM -RA BR BKN015 OVC040
     FM011800 15011KT 3SM -RA BR BKN007 OVC015
     FM012200 17005KT 1 1/2SM -RA BR OVC004
     FM020300 31013KT 2SM -SN BR OVC007
      AMD LTD TO CLD VIS AND WIND TIL 011400=

USA.gov is the U.S. government's official web portal to all federal, state and local government web resources and services.